FW2272 Weather Reports


Display with metric or nautical units.
time (UTC)temp
F
wind
direction
speed
MPH
gust
MPH
rain 1hr
in
rain 24hr
in
rain mn
in
humidity
%
barometer
mb
20260503205710 77 10 6.0 0.0 0.00 0.00 0.00 38 1021.3
20260503205211 77 111 5.0 0.0 0.00 0.00 0.00 39 1021.3
20260503204712 77 263 5.0 0.0 0.00 0.00 0.00 37 1021.7
20260503204212 77 240 5.0 0.0 0.00 0.00 0.00 37 1021.7
20260503203713 77 145 6.0 0.0 0.00 0.00 0.00 39 1021.7
20260503203213 77 136 6.0 0.0 0.00 0.00 0.00 38 1022.0
20260503203013 78 145 7.0 0.0 0.00 0.00 0.00 38 1022.0
20260503202214 78 112 8.0 0.0 0.00 0.00 0.00 39 1022.0
20260503201714 78 98 7.0 0.0 0.00 0.00 0.00 37 1022.0
20260503201215 78 92 5.0 0.0 0.00 0.00 0.00 39 1022.0
20260503200713 78 150 7.0 0.0 0.00 0.00 0.00 38 1022.4
20260503200214 78 132 7.0 0.0 0.00 0.00 0.00 40 1022.4
20260503195715 78 99 9.0 0.0 0.00 0.00 0.00 40 1022.4
20260503195209 78 171 6.0 0.0 0.00 0.00 0.00 44 1022.4
20260503194713 78 142 5.0 0.0 0.00 0.00 0.00 38 1022.7
20260503194214 78 119 5.0 0.0 0.00 0.00 0.00 37 1022.7
20260503193716 78 72 5.0 0.0 0.00 0.00 0.00 40 1022.7
20260503193209 79 116 5.0 0.0 0.00 0.00 0.00 37 1022.7
20260503192714 78 215 5.0 0.0 0.00 0.00 0.00 39 1022.7
20260503192213 78 221 7.0 0.0 0.00 0.00 0.00 43 1022.7
20260503191713 78 125 7.0 0.0 0.00 0.00 0.00 43 1022.7
20260503191209 77 145 5.0 0.0 0.00 0.00 0.00 44 1022.7
20260503190713 78 102 5.0 0.0 0.00 0.00 0.00 42 1023.0
20260503190211 78 138 6.0 0.0 0.00 0.00 0.00 42 1023.0
20260503185711 77 70 8.0 0.0 0.00 0.00 0.00 44 1023.0
20260503185214 78 103 10.0 0.0 0.00 0.00 0.00 43 1023.0
20260503184711 78 195 5.0 0.0 0.00 0.00 0.00 44 1023.4
20260503184213 78 114 5.0 0.0 0.00 0.00 0.00 44 1023.4
20260503183711 77 138 9.0 0.0 0.00 0.00 0.00 41 1023.7
20260503183211 78 300 7.0 0.0 0.00 0.00 0.00 43 1023.7
20260503182709 78 164 7.0 0.0 0.00 0.00 0.00 42 1023.7
20260503182212 78 111 7.0 0.0 0.00 0.00 0.00 43 1023.7
20260503181710 78 243 5.0 0.0 0.00 0.00 0.00 42 1024.0
20260503181210 77 167 4.0 0.0 0.00 0.00 0.00 45 1024.0
20260503180711 77 120 8.0 0.0 0.00 0.00 0.00 41 1024.0
20260503180212 77 102 8.0 0.0 0.00 0.00 0.00 41 1024.0
20260503175713 77 73 10.0 0.0 0.00 0.00 0.00 43 1024.4
20260503175211 76 117 7.0 0.0 0.00 0.00 0.00 38 1024.4
20260503174710 76 161 7.0 0.0 0.00 0.00 0.00 40 1024.4
20260503174214 77 89 7.0 0.0 0.00 0.00 0.00 42 1024.7
20260503173715 77 58 5.0 0.0 0.00 0.00 0.00 43 1024.7
20260503173212 77 112 6.0 0.0 0.00 0.00 0.00 40 1024.7
20260503172713 77 110 4.0 0.0 0.00 0.00 0.00 45 1024.7
20260503172211 77 223 6.0 0.0 0.00 0.00 0.00 44 1025.1
20260503171713 77 175 5.0 0.0 0.00 0.00 0.00 46 1025.1
20260503171216 76 234 3.0 0.0 0.00 0.00 0.00 45 1025.1
20260503170710 76 222 5.0 0.0 0.00 0.00 0.00 47 1025.1
20260503170211 75 288 5.0 0.0 0.00 0.00 0.00 49 1025.1
20260503160212 71 243 6.0 0.0 0.00 0.00 0.00 52 1025.4
20260503150713 67 79 6.0 0.0 0.00 0.00 0.00 58 1025.4
20260503150213 67 94 7.0 0.0 0.00 0.00 0.00 64 1025.4
20260503140211 57 199 0.0 0.0 0.00 0.00 0.00 98 1025.1
20260503131236 50 195 0.0 0.0 0.00 0.00 0.00 97 1024.7
20260503130735 50 191 0.0 0.0 0.00 0.00 0.00 97 1024.7
20260503130236 49 200 0.0 0.0 0.00 0.00 0.00 97 1024.7
20260503110731 46 174 0.0 0.0 0.00 0.00 0.00 96 1023.7
20260503110232 46 190 0.0 0.0 0.00 0.00 0.00 96 1023.7
20260503071532 49 192 0.0 0.0 0.00 0.00 0.00 93 1024.0
20260503054851 50 177 0.0 0.0 0.00 0.00 0.00 92 1024.4
20260503054025 50 177 0.0 0.0 0.00 0.00 0.00 91 1024.0
20260503053227 50 177 0.0 0.0 0.00 0.00 0.00 91 1024.0
20260503052725 50 181 2.0 0.0 0.00 0.00 0.00 91 1024.0
20260503052224 50 172 2.0 0.0 0.00 0.00 0.00 91 1024.0
20260503051726 51 179 2.0 0.0 0.00 0.00 0.00 91 1024.4
20260503051224 51 174 0.0 0.0 0.00 0.00 0.00 91 1024.0
20260503050825 51 182 0.0 0.0 0.00 0.00 0.00 90 1024.0
20260503045725 51 184 1.0 0.0 0.00 0.00 0.00 90 1024.0
20260503045227 51 174 2.0 0.0 0.00 0.00 0.00 90 1024.0
20260503044726 51 167 2.0 0.0 0.00 0.00 0.00 90 1024.0
20260503044224 52 176 2.0 0.0 0.00 0.00 0.00 89 1024.0
20260503043725 52 153 2.0 0.0 0.00 0.00 0.00 89 1024.0
20260503043225 52 182 0.0 0.0 0.00 0.00 0.00 89 1024.0
20260503042723 52 180 1.0 0.0 0.00 0.00 0.00 89 1024.0
20260503042223 52 180 2.0 0.0 0.00 0.00 0.00 88 1024.4
20260503041725 52 180 2.0 0.0 0.00 0.00 0.00 88 1024.0
20260503041226 52 182 2.0 0.0 0.00 0.00 0.00 88 1024.0
20260503040725 52 157 2.0 0.0 0.00 0.00 0.00 87 1024.0
20260503040226 53 173 2.0 0.0 0.00 0.00 0.00 87 1024.0
20260503035725 53 174 2.0 0.0 0.00 0.00 0.00 87 1023.7
20260503035223 53 188 2.0 0.0 0.00 0.00 0.00 86 1023.7
20260503034727 53 178 2.0 0.0 0.00 0.00 0.00 86 1023.7
20260503034226 53 162 2.0 0.0 0.00 0.00 0.00 86 1023.7
20260503033724 54 170 2.0 0.0 0.00 0.00 0.00 85 1023.7
20260503033224 54 178 2.0 0.0 0.00 0.00 0.00 85 1023.7
20260503032724 54 173 2.0 0.0 0.00 0.00 0.00 85 1023.7
20260503032224 54 150 3.0 0.0 0.00 0.00 0.00 85 1023.7
20260503031725 55 153 2.0 0.0 0.00 0.00 0.00 84 1023.7
20260503031224 55 168 2.0 0.0 0.00 0.00 0.00 84 1023.7
20260503030723 55 148 2.0 0.0 0.00 0.00 0.00 83 1023.7
20260503030224 55 173 2.0 0.0 0.00 0.00 0.00 83 1023.4
20260503025726 55 174 2.0 0.0 0.00 0.00 0.00 82 1023.4
20260503025223 56 192 2.0 0.0 0.00 0.00 0.00 81 1023.4
20260503024727 56 181 2.0 0.0 0.00 0.00 0.00 81 1023.4
20260503024223 56 176 2.0 0.0 0.00 0.00 0.00 81 1023.0
20260503023726 56 170 2.0 0.0 0.00 0.00 0.00 81 1023.0
20260503023225 56 169 2.0 0.0 0.00 0.00 0.00 80 1023.0
20260503022726 57 164 2.0 0.0 0.00 0.00 0.00 80 1023.0
20260503022225 57 154 2.0 0.0 0.00 0.00 0.00 79 1023.0
20260503021726 57 182 2.0 0.0 0.00 0.00 0.00 78 1022.7
20260503021228 58 176 2.0 0.0 0.00 0.00 0.00 78 1022.7
20260503020726 58 184 2.0 0.0 0.00 0.00 0.00 77 1022.7
20260503020225 58 169 2.0 0.0 0.00 0.00 0.00 76 1022.7
20260503015757 59 169 2.0 0.0 0.00 0.00 0.00 75 1022.4
20260503015226 59 164 2.0 0.0 0.00 0.00 0.00 74 1022.4
20260503014727 60 167 2.0 0.0 0.00 0.00 0.00 73 1022.4
20260503014224 60 161 2.0 0.0 0.00 0.00 0.00 73 1022.4
20260503013725 61 174 2.0 0.0 0.00 0.00 0.00 72 1022.4
20260503013227 62 163 2.0 0.0 0.00 0.00 0.00 71 1022.0
20260503012725 62 165 2.0 0.0 0.00 0.00 0.00 69 1022.0
20260503012226 63 162 2.0 0.0 0.00 0.00 0.00 67 1022.0
20260503011726 64 169 2.0 0.0 0.00 0.00 0.00 66 1022.0
20260503011225 65 164 3.0 0.0 0.00 0.00 0.00 64 1022.0
20260503010726 66 153 2.0 0.0 0.00 0.00 0.00 62 1022.0
20260503010230 67 168 2.0 0.0 0.00 0.00 0.00 59 1021.7
20260503005729 68 173 3.0 0.0 0.00 0.00 0.00 57 1022.0
20260503005229 69 162 2.0 0.0 0.00 0.00 0.00 53 1021.7
20260503004729 70 181 2.0 0.0 0.00 0.00 0.00 49 1022.0
20260503004227 70 231 2.0 0.0 0.00 0.00 0.00 45 1021.7
20260503003729 70 231 4.0 0.0 0.00 0.00 0.00 45 1021.7
20260503003228 71 181 4.0 0.0 0.00 0.00 0.00 45 1021.7
20260503002728 71 233 4.0 0.0 0.00 0.00 0.00 43 1021.7
20260503002228 71 233 3.0 0.0 0.00 0.00 0.00 44 1021.7
20260503001726 71 157 4.0 0.0 0.00 0.00 0.00 44 1022.0
20260503001229 71 234 4.0 0.0 0.00 0.00 0.00 44 1021.7
20260503000729 71 238 3.0 0.0 0.00 0.00 0.00 44 1022.0
20260503000227 71 225 3.0 0.0 0.00 0.00 0.00 44 1021.7
20260502235727 71 120 4.0 0.0 0.00 0.00 0.00 44 1021.7
20260502235229 71 88 6.0 0.0 0.00 0.00 0.00 43 1021.7
20260502234727 71 184 4.0 0.0 0.00 0.00 0.00 43 1021.7
20260502234226 72 212 3.0 0.0 0.00 0.00 0.00 44 1021.7
20260502233727 72 193 4.0 0.0 0.00 0.00 0.00 43 1021.7
20260502233226 72 214 5.0 0.0 0.00 0.00 0.00 43 1021.7
20260502232725 72 125 6.0 0.0 0.00 0.00 0.00 43 1021.7
20260502232227 72 131 7.0 0.0 0.00 0.00 0.00 43 1021.7
20260502231726 72 84 3.0 0.0 0.00 0.00 0.00 45 1021.7
20260502231226 72 289 3.0 0.0 0.00 0.00 0.00 43 1021.7
20260502230726 72 271 7.0 0.0 0.00 0.00 0.00 41 1021.7
20260502230226 72 249 5.0 0.0 0.00 0.00 0.00 42 1021.7
20260502225726 72 166 3.0 0.0 0.00 0.00 0.00 45 1021.7
20260502225228 72 242 5.0 0.0 0.00 0.00 0.00 43 1021.7
20260502224725 72 280 6.0 0.0 0.00 0.00 0.00 41 1021.7
20260502224225 72 186 7.0 0.0 0.00 0.00 0.00 43 1021.7
20260502223725 72 273 5.0 0.0 0.00 0.00 0.00 42 1021.7
20260502223228 72 301 6.0 0.0 0.00 0.00 0.00 41 1021.7
20260502222727 72 321 7.0 0.0 0.00 0.00 0.00 42 1021.7
20260502222226 72 91 7.0 0.0 0.00 0.00 0.00 43 1021.7
20260502221725 72 84 7.0 0.0 0.00 0.00 0.00 42 1021.7
20260502221225 72 288 6.0 0.0 0.00 0.00 0.00 43 1021.7
20260502220725 72 270 5.0 0.0 0.00 0.00 0.00 43 1021.7
20260502220226 73 305 8.0 0.0 0.00 0.00 0.00 42 1021.7
20260502215727 72 281 8.0 0.0 0.00 0.00 0.00 42 1021.7
20260502215226 72 177 3.0 0.0 0.00 0.00 0.00 44 1021.7
20260502214727 72 235 8.0 0.0 0.00 0.00 0.00 43 1022.0
20260502214225 72 287 7.0 0.0 0.00 0.00 0.00 42 1021.7
20260502213724 72 112 8.0 0.0 0.00 0.00 0.00 43 1022.0
20260502213224 72 250 5.0 0.0 0.00 0.00 0.00 44 1022.0
20260502212719 72 168 6.0 0.0 0.00 0.00 0.00 42 1022.0
20260502212213 72 244 7.0 0.0 0.00 0.00 0.00 43 1022.0
20260502211712 72 150 8.0 0.0 0.00 0.00 0.00 43 1022.0
20260502211211 72 286 6.0 0.0 0.00 0.00 0.00 42 1022.4
20260502210714 72 256 8.0 0.0 0.00 0.00 0.00 43 1022.4
20260502210211 72 20 7.0 0.0 0.00 0.00 0.00 42 1022.4